Tiempo cada hora Abernethy

Hoy, 24 Octubre, Sábado

Tiempo Temperatura Precipitaciones Viento Presión Humedad
00:00 +4°C° 0 mm 3 mps 734 mmHg 89%
01:00 +4°C° 0.1 mm 4 mps 733 mmHg 88%
02:00 +5°C° 0.1 mm 4 mps 732 mmHg 88%
03:00 +5°C° 0.1 mm 5 mps 731 mmHg 87%
04:00 +6°C° 0.6 mm 5 mps 729 mmHg 88%
05:00 +7°C° 0.6 mm 6 mps 728 mmHg 88%
06:00 +8°C° 0.6 mm 7 mps 727 mmHg 88%
07:00 +8°C° 1.2 mm 7 mps 727 mmHg 89%
08:00 +8°C° 1.2 mm 6 mps 727 mmHg 90%
09:00 +8°C° 1.2 mm 5 mps 727 mmHg 91%
10:00 +8°C° 0.4 mm 6 mps 727 mmHg 88%
11:00 +8°C° 0.4 mm 6 mps 727 mmHg 84%
12:00 +8°C° 0.4 mm 6 mps 727 mmHg 80%
13:00 +8°C° 0.1 mm 6 mps 727 mmHg 80%
14:00 +7°C° 0.1 mm 5 mps 727 mmHg 81%
15:00 +7°C° 0.1 mm 5 mps 727 mmHg 81%
16:00 +6°C° 0.1 mm 5 mps 727 mmHg 83%
17:00 +6°C° 0.1 mm 4 mps 727 mmHg 84%
18:00 +5°C° 0.1 mm 4 mps 726 mmHg 86%
19:00 +4°C° 0 mm 3 mps 726 mmHg 87%
20:00 +4°C° 0 mm 3 mps 726 mmHg 87%
21:00 +4°C° 0 mm 2 mps 726 mmHg 88%
22:00 +4°C° 0 mm 2 mps 726 mmHg 88%
23:00 +4°C° 0 mm 2 mps 726 mmHg 89%

Mañana, 25 Octubre, Domingo

Tiempo Temperatura Precipitaciones Viento Presión Humedad
00:00 +4°C° 0 mm 2 mps 725 mmHg 89%
01:00 +4°C° 0 mm 2 mps 725 mmHg 89%
02:00 +3°C° 0 mm 3 mps 725 mmHg 89%
03:00 +3°C° 0 mm 3 mps 724 mmHg 90%
04:00 +3°C° 0 mm 3 mps 724 mmHg 89%
05:00 +3°C° 0 mm 4 mps 724 mmHg 88%
06:00 +3°C° 0 mm 4 mps 723 mmHg 87%
07:00 +4°C° 0 mm 4 mps 724 mmHg 86%
08:00 +4°C° 0 mm 4 mps 724 mmHg 86%
09:00 +5°C° 0 mm 4 mps 724 mmHg 85%
10:00 +6°C° 0.1 mm 5 mps 724 mmHg 83%
11:00 +7°C° 0.1 mm 6 mps 724 mmHg 80%
12:00 +6°C° 0.1 mm 7 mps 725 mmHg 77%
13:00 +7°C° 0 mm 6 mps 725 mmHg 77%
14:00 +7°C° 0 mm 6 mps 725 mmHg 77%
15:00 +7°C° 0 mm 5 mps 725 mmHg 77%
16:00 +6°C° 0 mm 5 mps 725 mmHg 80%
17:00 +5°C° 0 mm 5 mps 725 mmHg 82%
18:00 +5°C° 0 mm 5 mps 725 mmHg 85%
19:00 +5°C° 0 mm 4 mps 725 mmHg 86%
20:00 +4°C° 0 mm 4 mps 725 mmHg 86%
21:00 +4°C° 0 mm 4 mps 725 mmHg 87%
22:00 +4°C° 0 mm 4 mps 725 mmHg 87%
23:00 +4°C° 0 mm 4 mps 725 mmHg 88%

Pasado mañana, 26 Octubre, Lunes

Tiempo Temperatura Precipitaciones Viento Presión Humedad
00:00 +4°C° 0 mm 3 mps 725 mmHg 88%
01:00 +4°C° 0 mm 3 mps 725 mmHg 89%
02:00 +5°C° 0 mm 3 mps 725 mmHg 90%
03:00 +5°C° 0 mm 3 mps 724 mmHg 91%
04:00 +5°C° 0.1 mm 3 mps 724 mmHg 91%
05:00 +5°C° 0.1 mm 3 mps 724 mmHg 92%
06:00 +5°C° 0.1 mm 3 mps 724 mmHg 92%
07:00 +5°C° 0.1 mm 3 mps 725 mmHg 91%
08:00 +7°C° 0.1 mm 3 mps 725 mmHg 90%
09:00 +7°C° 0.1 mm 3 mps 725 mmHg 89%
10:00 +8°C° 0.1 mm 3 mps 725 mmHg 87%
11:00 +8°C° 0.1 mm 3 mps 725 mmHg 84%
12:00 +9°C° 0.1 mm 3 mps 726 mmHg 82%
13:00 +9°C° 0.2 mm 2 mps 726 mmHg 82%
14:00 +9°C° 0.2 mm 2 mps 726 mmHg 83%
15:00 +9°C° 0.2 mm 2 mps 726 mmHg 83%
16:00 +8°C° 0 mm 2 mps 726 mmHg 86%
17:00 +7°C° 0 mm 2 mps 727 mmHg 89%
18:00 +6°C° 0 mm 2 mps 727 mmHg 91%
19:00 +5°C° 0 mm 2 mps 728 mmHg 91%
20:00 +5°C° 0 mm 2 mps 728 mmHg 90%
21:00 +5°C° 0 mm 2 mps 728 mmHg 90%
22:00 +4°C° 0 mm 2 mps 729 mmHg 90%
23:00 +4°C° 0 mm 2 mps 729 mmHg 90%

, 27 Octubre, Martes

Tiempo Temperatura Precipitaciones Viento Presión Humedad
00:00 +5°C° 0 mm 1 mps 729 mmHg 90%
01:00 +5°C° 0 mm 1 mps 729 mmHg 90%
02:00 +4°C° 0 mm 1 mps 729 mmHg 90%
03:00 +4°C° 0 mm 1 mps 729 mmHg 90%
04:00 +4°C° 0 mm 1 mps 729 mmHg 91%
05:00 +4°C° 0 mm 1 mps 729 mmHg 92%
06:00 +4°C° 0 mm 1 mps 729 mmHg 93%
07:00 +4°C° 0 mm 1 mps 729 mmHg 93%
08:00 +5°C° 0 mm 1 mps 729 mmHg 92%
09:00 +6°C° 0 mm 1 mps 729 mmHg 92%
10:00 +7°C° 0 mm 1 mps 728 mmHg 89%
11:00 +7°C° 0 mm 2 mps 727 mmHg 87%
12:00 +8°C° 0 mm 2 mps 727 mmHg 84%
13:00 +8°C° 0.2 mm 3 mps 726 mmHg 85%
14:00 +8°C° 0.2 mm 3 mps 725 mmHg 86%
15:00 +7°C° 0.2 mm 4 mps 724 mmHg 87%
16:00 +7°C° 2.1 mm 4 mps 724 mmHg 90%
17:00 +6°C° 2.1 mm 4 mps 723 mmHg 93%
18:00 +6°C° 2.1 mm 4 mps 723 mmHg 96%
19:00 +6°C° 0.7 mm 5 mps 723 mmHg 94%
20:00 +4°C° 0.7 mm 6 mps 723 mmHg 91%
21:00 +4°C° 0.7 mm 7 mps 723 mmHg 88%
22:00 +4°C° 0 mm 6 mps 723 mmHg 89%
23:00 +3°C° 0 mm 5 mps 723 mmHg 89%

27 Octubre, Martes

Tiempo Temperatura Precipitaciones Viento Presión Humedad
00:00 +5°C° 0 mm 1 mps 729 mmHg 90%
01:00 +5°C° 0 mm 1 mps 729 mmHg 90%
02:00 +4°C° 0 mm 1 mps 729 mmHg 90%
03:00 +4°C° 0 mm 1 mps 729 mmHg 90%
04:00 +4°C° 0 mm 1 mps 729 mmHg 91%
05:00 +4°C° 0 mm 1 mps 729 mmHg 92%
06:00 +4°C° 0 mm 1 mps 729 mmHg 93%
07:00 +4°C° 0 mm 1 mps 729 mmHg 93%
08:00 +5°C° 0 mm 1 mps 729 mmHg 92%
09:00 +6°C° 0 mm 1 mps 729 mmHg 92%
10:00 +7°C° 0 mm 1 mps 728 mmHg 89%
11:00 +7°C° 0 mm 2 mps 727 mmHg 87%
12:00 +8°C° 0 mm 2 mps 727 mmHg 84%
13:00 +8°C° 0.2 mm 3 mps 726 mmHg 85%
14:00 +8°C° 0.2 mm 3 mps 725 mmHg 86%
15:00 +7°C° 0.2 mm 4 mps 724 mmHg 87%
16:00 +7°C° 2.1 mm 4 mps 724 mmHg 90%
17:00 +6°C° 2.1 mm 4 mps 723 mmHg 93%
18:00 +6°C° 2.1 mm 4 mps 723 mmHg 96%
19:00 +6°C° 0.7 mm 5 mps 723 mmHg 94%
20:00 +4°C° 0.7 mm 6 mps 723 mmHg 91%
21:00 +4°C° 0.7 mm 7 mps 723 mmHg 88%
22:00 +4°C° 0 mm 6 mps 723 mmHg 89%
23:00 +3°C° 0 mm 5 mps 723 mmHg 89%

28 Octubre, Miércoles

Tiempo Temperatura Precipitaciones Viento Presión Humedad
00:00 +3°C° 0 mm 4 mps 723 mmHg 89%
01:00 +3°C° 0 mm 3 mps 722 mmHg 90%
02:00 +3°C° 0 mm 3 mps 722 mmHg 91%
03:00 +3°C° 0 mm 3 mps 722 mmHg 91%
04:00 +4°C° 0.2 mm 2 mps 721 mmHg 91%
05:00 +5°C° 0.2 mm 2 mps 721 mmHg 92%
06:00 +6°C° 0.2 mm 2 mps 721 mmHg 92%
07:00 +5°C° 0.1 mm 3 mps 721 mmHg 91%
08:00 +7°C° 0.1 mm 3 mps 720 mmHg 90%
09:00 +6°C° 0.1 mm 4 mps 720 mmHg 89%
10:00 +7°C° 0.2 mm 4 mps 720 mmHg 86%
11:00 +8°C° 0.2 mm 5 mps 720 mmHg 83%
12:00 +9°C° 0.2 mm 5 mps 719 mmHg 80%
13:00 +8°C° 0.3 mm 6 mps 718 mmHg 83%
14:00 +8°C° 0.3 mm 6 mps 718 mmHg 85%
15:00 +7°C° 0.3 mm 6 mps 717 mmHg 87%
16:00 +7°C° 0.3 mm 6 mps 716 mmHg 87%
17:00 +7°C° 0.3 mm 6 mps 716 mmHg 88%
18:00 +7°C° 0.3 mm 6 mps 715 mmHg 88%
19:00 +7°C° 0.2 mm 5 mps 716 mmHg 90%
20:00 +7°C° 0.2 mm 4 mps 716 mmHg 92%
21:00 +8°C° 0.2 mm 3 mps 716 mmHg 93%
22:00 +7°C° 0.3 mm 4 mps 718 mmHg 93%
23:00 +7°C° 0.3 mm 5 mps 719 mmHg 92%

29 Octubre, Jueves

Tiempo Temperatura Precipitaciones Viento Presión Humedad
00:00 +7°C° 0.3 mm 5 mps 720 mmHg 91%
01:00 +6°C° 0 mm 5 mps 721 mmHg 90%
02:00 +6°C° 0 mm 5 mps 722 mmHg 90%
03:00 +5°C° 0 mm 5 mps 723 mmHg 89%
04:00 +5°C° 0 mm 5 mps 724 mmHg 90%
05:00 +5°C° 0 mm 4 mps 725 mmHg 91%
06:00 +4°C° 0 mm 4 mps 726 mmHg 93%
07:00 +5°C° 0 mm 4 mps 726 mmHg 92%
08:00 +6°C° 0 mm 4 mps 726 mmHg 91%
09:00 +6°C° 0 mm 4 mps 726 mmHg 90%
10:00 +7°C° 1.4 mm 3 mps 725 mmHg 92%
11:00 +7°C° 1.4 mm 2 mps 725 mmHg 93%
12:00 +8°C° 1.4 mm 1 mps 725 mmHg 94%
13:00 +7°C° 0.4 mm 2 mps 725 mmHg 93%
14:00 +8°C° 0.4 mm 3 mps 725 mmHg 91%
15:00 +8°C° 0.4 mm 3 mps 725 mmHg 89%
16:00 +7°C° 0.1 mm 4 mps 725 mmHg 89%
17:00 +7°C° 0.1 mm 5 mps 725 mmHg 88%
18:00 +7°C° 0.1 mm 6 mps 725 mmHg 87%
19:00 +7°C° 0.1 mm 6 mps 726 mmHg 87%
20:00 +6°C° 0.1 mm 7 mps 726 mmHg 86%
21:00 +6°C° 0.1 mm 7 mps 726 mmHg 86%
22:00 +6°C° 0.1 mm 7 mps 727 mmHg 86%
23:00 +5°C° 0.1 mm 6 mps 728 mmHg 87%
Mostrar más

Necesitamos Su Consentimiento

Meteoprog y nuestros Proveedores de Servicios pueden almacenar y acceder a sus datos personales como cookies, identificadores de dispositivo u otras tecnologías similares de su dispositivo y procesar dichos datos para personalizar contenido y anuncios, además de ofrecer funciones de redes sociales y analizar el tráfico.

  • Almacenar y/o acceder a información en su dispositivo

    Se puede almacenar o acceder a cookies, identificadores de dispositivo u otra información de su dispositivo para los fines anteriormente indicados.

  • Anuncios y contenido personalizados, medición de anuncios y contenido, percepciones del público, y desarrollo de productos

    Los anuncios y el contenido pueden personalizarse en base a su perfil. Se pueden añadir más datos para personalizar mejor los anuncios y contenidos. Se puede medir el rendimiento de los anuncios y contenidos. Se puede obtener la percepción sobre el público que ha visto los anuncios y contenidos. Dichos datos pueden usarse para desarrollar o mejorar la experiencia del usuario, sistemas y software.

Al hacer clic en ‘Estoy De Acuerdo’ usted permitirá el uso de las cookies, identificadores de dispositivo, balizas web u otras tecnologías similares indicadas. Su configuración puede cambiarse desde el navegador de su dispositivo.

Para ciertos fines, los intereses legítimos pueden ser considerados por encima del consentimiento. Puede leer más sobre ello en nuestra Política de Privacidad y Cookies.